Hourly Weather Roundup
Issued by NWS Central Illinois

Home | Current Version | Previous Version | Text Only | Print | Product List | Glossary On
Versions: 1 2 3 4 5 6 7 8 9 10 11 12 13 14 15 16 17 18 19 20 21 22 23 24 25 26 27 28 29 30 31 32 33 34 35 36 37 38 39 40 41 42 43 44 45 46 47 48 49 50
562
NZUS43 KILX 061310
HWRILX

AREA WEATHER ROUNDUP
NATIONAL WEATHER SERVICE, LINCOLN IL
700 AM CST TUE DEC 06 2016


CITY           SKY/WX    TMP DP  RH WIND       PRES   REMARKS
BLOOMINGTON    CLOUDY    30  30 100 N10       29.77S FOG     WCI  21
CHAMPAIGN      CLOUDY    37  33  85 NE7       29.72F WCI  32
DANVILLE       CLOUDY    35  33  94 E5        29.70F WCI  30
DECATUR        CLOUDY    36  34  92 N6        29.76R WCI  31
EFFINGHAM      DRIZZLE   39  38  94 NE5       29.72F
FLORA          CLOUDY    40  38  94 NW5       29.73S
GALESBURG      CLOUDY    33  33 100 CALM      29.80F FOG
JACKSONVILLE   CLOUDY    34  33  98 NW7       29.80R FOG     WCI  28
LACON          FOG       31  31 100 N3        29.80S VSB 3/4
LAWRENCEVILLE  LGT RAIN  40  37  89 NE7       29.71F FOG
LITCHFIELD     CLOUDY    35  34  98 NW10      29.77R FOG     WCI  27
$$


CITY           SKY/WX    TMP DP  RH WIND       PRES   REMARKS
LINCOLN        CLOUDY    33  33  99 N3        29.79S FOG
MACOMB         CLOUDY    34  34  99 NW6       29.83S FOG     WCI  29
MATTOON        CLOUDY    37  34  89 CALM      29.72R
MT CARMEL AP   HVY RAIN  40  38  93 NE8       29.70F WCI  34
OLNEY-NOBLE AP LGT RAIN  37  37 100 N5        29.72S WCI  34
PARIS          CLOUDY    37  36  94 NE7       29.73F WCI  32
PEORIA         FOG       32  32 100 N3        29.80F VSB 1/2
PONTIAC        CLOUDY    31  31 100 NW6       29.80R FOG     WCI  25
RANTOUL        LGT RAIN  35  34  95 NE3       29.73F
SPRINGFIELD    CLOUDY    35  33  92 NW6       29.79R FOG     WCI  30
TAYLORVILLE    CLOUDY    35  34  96 NW10      29.76S FOG     WCI  27
$$

...REGIONAL REPORTS...


CITY           SKY/WX    TMP DP  RH WIND       PRES   REMARKS
CHICAGO O`HARE FOG       30  30 100 NW6       29.79F VSB 1/2 WCI  24
KANKAKEE       CLOUDY    32  30  94 CALM      29.77R FOG
MOLINE         FOG       34  32  92 CALM      29.80F VSB 1/4
MOUNT STERLING CLOUDY    33  33  98 NW8       29.81R FOG     WCI  26
MOUNT VERNON   NOT AVBL
PITTSFIELD     CLOUDY    35  34  95 NW15G21   29.82R FOG     WCI  25
QUINCY         CLOUDY    35  34  96 NW10      29.81R FOG     WCI  27
ROCKFORD       FOG       33  32  96 CALM      29.83S VSB 3/4
$$


CITY           SKY/WX    TMP DP  RH WIND       PRES   REMARKS
BURLINGTON     CLOUDY    35  34  96 NW5       29.81S FOG     WCI  31
CEDAR RAPIDS   CLOUDY    33  33 100 NW10      29.80S WCI  25
DES MOINES     CLOUDY    30  20  66 NW15      29.88R WCI  19
KIRKSVILLE     CLOUDY    37  36  96 NW9       29.83R FOG     WCI  30
OTTUMWA        CLOUDY    33  27  78 NW14      29.84R WCI  23
ST LOUIS       CLOUDY    38  34  85 N10       29.79R FOG     WCI  31
$$


CITY           SKY/WX    TMP DP  RH WIND       PRES   REMARKS
TERRE HAUTE    LGT RAIN  39  34  82 NE6       29.72F WCI  35
EVANSVILLE     RAIN      42  40  92 N6        29.70R FOG
INDIANAPOLIS   CLOUDY    38  34  85 CALM      29.70F
LAFAYETTE      CLOUDY    34  32  92 E7        29.75F WCI  28
MADISON        FRZ DRZL  32  30  92 S6        29.81S FOG     WCI  26
MILWAUKEE      CLOUDY    39  33  79 SE6       29.80F WCI  35
$$






USA.gov is the U.S. government's official web portal to all federal, state and local government web resources and services.